Time,TemperatureF,DewpointF,PressureIn,WindDirection,WindDirectionDegrees,WindSpeedMPH,WindSpeedGustMPH,Humidity,HourlyPrecipIn,Conditions,Clouds,dailyrainin,SoftwareType,DateUTC
2013-09-06 00:00:00,64.7,63.2,30.10,North,0,0.0,0.0,95,0.00,,---,0.00,VWS V14.01,2013-09-06 05:00:00,
2013-09-06 00:30:00,64.5,63.3,30.10,North,0,0.0,0.0,96,0.00,,---,0.00,VWS V14.01,2013-09-06 05:30:00,
2013-09-06 01:00:00,64.2,63.0,30.11,North,0,0.0,0.0,96,0.00,,---,0.00,VWS V14.01,2013-09-06 06:00:00,
2013-09-06 01:30:00,64.1,62.9,30.11,North,0,0.0,0.0,96,0.00,,---,0.00,VWS V14.01,2013-09-06 06:30:00,
2013-09-06 02:00:00,64.0,62.8,30.10,North,0,0.0,0.0,96,0.00,,---,0.00,VWS V14.01,2013-09-06 07:00:00,
2013-09-06 02:30:00,63.7,62.5,30.10,North,0,0.0,0.0,96,0.00,,---,0.00,VWS V14.01,2013-09-06 07:30:00,
2013-09-06 03:00:00,63.9,63.0,30.09,North,0,0.0,0.0,97,0.00,,---,0.00,VWS V14.01,2013-09-06 08:00:00,
2013-09-06 03:30:00,64.0,63.1,30.09,North,0,0.0,0.0,97,0.00,,---,0.00,VWS V14.01,2013-09-06 08:30:00,
2013-09-06 04:00:00,63.8,62.9,30.09,North,0,0.0,0.0,97,0.00,,---,0.00,VWS V14.01,2013-09-06 09:00:00,
2013-09-06 04:30:00,63.6,62.7,30.08,North,0,0.0,0.0,97,0.00,,---,0.00,VWS V14.01,2013-09-06 09:30:00,
2013-09-06 05:00:00,63.1,62.2,30.08,North,0,0.0,0.0,97,0.00,,---,0.00,VWS V14.01,2013-09-06 10:00:00,
2013-09-06 05:30:00,62.4,61.5,30.08,North,0,0.0,0.0,97,0.00,,---,0.00,VWS V14.01,2013-09-06 10:30:00,
2013-09-06 06:00:00,62.1,61.2,30.09,North,0,0.0,0.0,97,0.00,,---,0.00,VWS V14.01,2013-09-06 11:00:00,
2013-09-06 06:30:00,61.6,60.7,30.09,North,0,0.0,0.0,97,0.00,,---,0.00,VWS V14.01,2013-09-06 11:30:00,
2013-09-06 07:00:00,61.1,60.2,30.10,North,0,0.0,0.0,97,0.00,,---,0.00,VWS V14.01,2013-09-06 12:00:00,
2013-09-06 07:30:00,61.8,60.9,30.11,North,0,0.0,0.0,97,0.00,,---,0.00,VWS V14.01,2013-09-06 12:30:00,
2013-09-06 08:00:00,64.8,64.2,30.11,North,0,0.0,0.0,98,0.00,,---,0.00,VWS V14.01,2013-09-06 13:00:00,
2013-09-06 08:30:00,66.9,66.3,30.11,NNE,22,0.0,1.0,98,0.00,,---,0.00,VWS V14.01,2013-09-06 13:30:00,
2013-09-06 09:00:00,70.4,68.6,30.11,NNE,22,0.0,1.0,94,0.00,,---,0.00,VWS V14.01,2013-09-06 14:00:00,
2013-09-06 09:30:00,73.7,68.6,30.11,NNE,22,1.0,3.0,84,0.00,,---,0.00,VWS V14.01,2013-09-06 14:30:00,
2013-09-06 10:00:00,76.3,69.3,30.12,NNE,22,1.0,5.0,79,0.00,,---,0.00,VWS V14.01,2013-09-06 15:00:00,
2013-09-06 10:30:00,78.3,68.5,30.12,NE,45,3.0,7.0,72,0.00,,---,0.00,VWS V14.01,2013-09-06 15:30:00,
2013-09-06 11:00:00,80.4,69.3,30.12,NE,45,3.0,7.0,69,0.00,,---,0.00,VWS V14.01,2013-09-06 16:00:00,
2013-09-06 11:30:00,80.7,69.6,30.11,ESE,112,3.0,8.0,69,0.00,,---,0.00,VWS V14.01,2013-09-06 16:30:00,
2013-09-06 12:00:00,80.4,69.3,30.12,NE,45,3.0,7.0,69,0.00,,---,0.00,VWS V14.01,2013-09-06 17:00:00,
2013-09-06 12:15:00,82.7,69.8,30.09,East,85,0.0,3.0,65,0.00,,---,0.00,VWS V14.01,2013-09-06 17:15:00,
2013-09-06 12:20:00,82.3,68.0,30.09,SE,141,2.0,7.0,62,0.00,,---,0.00,VWS V14.01,2013-09-06 17:20:00,
2013-09-06 12:21:00,82.3,68.9,30.09,SE,141,0.0,7.0,64,0.00,,---,0.00,VWS V14.01,2013-09-06 17:21:00,
2013-09-06 12:25:00,82.9,69.0,30.09,ESE,123,3.0,7.0,63,0.00,,---,0.00,VWS V14.01,2013-09-06 17:25:00,
2013-09-06 12:26:00,82.9,69.5,30.09,NE,52,7.0,7.0,64,0.00,,---,0.00,VWS V14.01,2013-09-06 17:26:00,
2013-09-06 12:27:00,82.9,69.5,30.09,NE,51,5.0,7.0,64,0.00,,---,0.00,VWS V14.01,2013-09-06 17:27:00,
2013-09-06 12:30:00,82.9,69.0,30.09,South,172,2.0,7.0,63,0.00,,---,0.00,VWS V14.01,2013-09-06 17:30:00,
2013-09-06 12:31:00,82.8,69.4,30.09,South,176,3.0,7.0,64,0.00,,---,0.00,VWS V14.01,2013-09-06 17:31:00,
2013-09-06 12:32:00,82.6,68.7,30.09,South,176,0.0,7.0,63,0.00,,---,0.00,VWS V14.01,2013-09-06 17:32:00,
2013-09-06 12:34:00,82.6,70.1,30.08,SSE,168,3.0,7.0,66,0.00,,---,0.00,VWS V14.01,2013-09-06 17:34:00,
2013-09-06 12:35:00,82.8,69.8,30.09,ESE,104,8.0,11.0,65,0.00,,---,0.00,VWS V14.01,2013-09-06 17:35:00,
2013-09-06 12:36:00,82.9,69.5,30.08,East,84,7.0,11.0,64,0.00,,---,0.00,VWS V14.01,2013-09-06 17:36:00,
2013-09-06 12:39:00,83.1,68.7,30.08,ENE,76,1.0,11.0,62,0.00,,---,0.00,VWS V14.01,2013-09-06 17:39:00,
2013-09-06 12:40:00,83.1,68.7,30.08,NE,46,1.0,11.0,62,0.00,,---,0.00,VWS V14.01,2013-09-06 17:40:00,
2013-09-06 12:41:00,83.0,68.2,30.08,NNE,21,3.0,11.0,61,0.00,,---,0.00,VWS V14.01,2013-09-06 17:41:00,
2013-09-06 12:42:00,83.1,68.7,30.08,NNW,330,3.0,11.0,62,0.00,,---,0.00,VWS V14.01,2013-09-06 17:42:00,
2013-09-06 12:45:00,83.3,68.9,30.08,NE,43,2.0,11.0,62,0.00,,---,0.00,VWS V14.01,2013-09-06 17:45:00,
2013-09-06 12:46:00,83.2,68.8,30.08,NNE,29,5.0,11.0,62,0.00,,---,0.00,VWS V14.01,2013-09-06 17:46:00,
2013-09-06 12:48:00,83.1,69.2,30.08,East,89,7.0,11.0,63,0.00,,---,0.00,VWS V14.01,2013-09-06 17:48:00,
2013-09-06 12:50:00,83.4,68.1,30.08,East,86,3.0,11.0,60,0.00,,---,0.00,VWS V14.01,2013-09-06 17:50:00,
2013-09-06 12:51:00,83.5,68.7,30.08,ESE,120,4.0,11.0,61,0.00,,---,0.00,VWS V14.01,2013-09-06 17:51:00,
2013-09-06 12:53:00,83.8,68.4,30.08,ESE,109,4.0,11.0,60,0.00,,---,0.00,VWS V14.01,2013-09-06 17:53:00,
2013-09-06 12:56:00,83.7,67.9,30.08,SE,136,0.0,11.0,59,0.00,,---,0.00,VWS V14.01,2013-09-06 17:56:00,
2013-09-06 12:59:00,83.8,69.4,30.08,SE,126,2.0,7.0,62,0.00,,---,0.00,VWS V14.01,2013-09-06 17:59:00,
2013-09-06 13:00:00,83.6,67.8,30.08,SE,136,1.0,11.0,59,0.00,,---,0.00,VWS V14.01,2013-09-06 18:00:00,
2013-09-06 13:01:00,83.9,68.5,30.08,SE,125,2.0,7.0,60,0.00,,---,0.00,VWS V14.01,2013-09-06 18:01:00,
2013-09-06 13:02:00,83.9,69.0,30.08,South,182,2.0,7.0,61,0.00,,---,0.00,VWS V14.01,2013-09-06 18:02:00,
2013-09-06 13:04:00,84.1,70.2,30.08,South,182,1.0,7.0,63,0.00,,---,0.00,VWS V14.01,2013-09-06 18:04:00,
2013-09-06 13:06:00,84.4,70.4,30.08,WNW,287,0.0,7.0,63,0.00,,---,0.00,VWS V14.01,2013-09-06 18:06:00,
2013-09-06 13:07:00,84.5,70.5,30.08,West,276,1.0,7.0,63,0.00,,---,0.00,VWS V14.01,2013-09-06 18:07:00,
2013-09-06 13:08:00,84.6,69.2,30.08,East,96,6.0,7.0,60,0.00,,---,0.00,VWS V14.01,2013-09-06 18:08:00,
2013-09-06 13:10:00,84.4,68.5,30.08,SSE,150,1.0,8.0,59,0.00,,---,0.00,VWS V14.01,2013-09-06 18:10:00,
2013-09-06 13:11:00,84.2,68.8,30.08,SSE,150,1.0,8.0,60,0.00,,---,0.00,VWS V14.01,2013-09-06 18:11:00,
2013-09-06 13:12:00,84.4,69.5,30.08,ESE,106,3.0,8.0,61,0.00,,---,0.00,VWS V14.01,2013-09-06 18:12:00,
2013-09-06 13:13:00,84.5,69.6,30.08,ESE,106,1.0,8.0,61,0.00,,---,0.00,VWS V14.01,2013-09-06 18:13:00,
2013-09-06 13:15:00,85.0,70.1,30.08,East,82,3.0,10.0,61,0.00,,---,0.00,VWS V14.01,2013-09-06 18:15:00,
2013-09-06 13:16:00,85.0,69.6,30.08,ESE,115,4.0,10.0,60,0.00,,---,0.00,VWS V14.01,2013-09-06 18:16:00,
2013-09-06 13:17:00,85.0,69.6,30.08,East,93,5.0,10.0,60,0.00,,---,0.00,VWS V14.01,2013-09-06 18:17:00,
2013-09-06 13:18:00,85.0,70.1,30.08,East,86,0.0,10.0,61,0.00,,---,0.00,VWS V14.01,2013-09-06 18:18:00,
2013-09-06 13:21:00,84.6,68.7,30.08,WSW,249,0.0,10.0,59,0.00,,---,0.00,VWS V14.01,2013-09-06 18:21:00,
2013-09-06 13:22:00,84.6,68.7,30.07,WSW,249,0.0,10.0,59,0.00,,---,0.00,VWS V14.01,2013-09-06 18:22:00,
2013-09-06 13:24:00,84.4,69.5,30.07,SSW,194,2.0,10.0,61,0.00,,---,0.00,VWS V14.01,2013-09-06 18:24:00,
2013-09-06 13:26:00,84.2,69.8,30.07,SSW,195,0.0,1.0,62,0.00,,---,0.00,VWS V14.01,2013-09-06 18:26:00,
2013-09-06 13:27:00,84.3,69.9,30.07,SSW,195,1.0,1.0,62,0.00,,---,0.00,VWS V14.01,2013-09-06 18:27:00,
2013-09-06 13:29:00,85.0,70.5,30.07,ENE,74,3.0,8.0,62,0.00,,---,0.00,VWS V14.01,2013-09-06 18:29:00,
2013-09-06 13:30:00,85.0,70.5,30.07,East,87,7.0,8.0,62,0.00,,---,0.00,VWS V14.01,2013-09-06 18:30:00,
2013-09-06 13:31:00,84.8,68.9,30.07,East,98,1.0,8.0,59,0.00,,---,0.00,VWS V14.01,2013-09-06 18:31:00,
2013-09-06 13:32:00,84.8,68.9,30.07,SE,143,4.0,8.0,59,0.00,,---,0.00,VWS V14.01,2013-09-06 18:32:00,
2013-09-06 13:34:00,84.7,68.8,30.07,East,87,4.0,8.0,59,0.00,,---,0.00,VWS V14.01,2013-09-06 18:34:00,
2013-09-06 13:36:00,84.7,68.3,30.07,SE,127,4.0,10.0,58,0.00,,---,0.00,VWS V14.01,2013-09-06 18:36:00,
2013-09-06 13:37:00,84.7,68.3,30.07,ESE,106,4.0,10.0,58,0.00,,---,0.00,VWS V14.01,2013-09-06 18:37:00,
2013-09-06 13:39:00,84.7,68.3,30.07,ESE,102,1.0,10.0,58,0.00,,---,0.00,VWS V14.01,2013-09-06 18:39:00,
2013-09-06 13:42:00,84.7,67.8,30.07,ENE,68,1.0,10.0,57,0.00,,---,0.00,VWS V14.01,2013-09-06 18:42:00,
2013-09-06 13:43:00,84.3,67.9,30.07,NNE,25,1.0,10.0,58,0.00,,---,0.00,VWS V14.01,2013-09-06 18:43:00,
2013-09-06 13:44:00,84.3,67.9,30.07,East,79,3.0,10.0,58,0.00,,---,0.00,VWS V14.01,2013-09-06 18:44:00,
2013-09-06 13:47:00,84.5,68.1,30.07,NE,37,3.0,10.0,58,0.00,,---,0.00,VWS V14.01,2013-09-06 18:47:00,
2013-09-06 13:48:00,84.5,69.1,30.06,NE,49,3.0,10.0,60,0.00,,---,0.00,VWS V14.01,2013-09-06 18:48:00,
2013-09-06 13:49:00,84.5,69.1,30.06,NE,48,2.0,10.0,60,0.00,,---,0.00,VWS V14.01,2013-09-06 18:49:00,
2013-09-06 13:52:00,84.6,68.7,30.06,ENE,65,1.0,10.0,59,0.00,,---,0.00,VWS V14.01,2013-09-06 18:52:00,
2013-09-06 13:53:00,84.4,68.0,30.06,ENE,65,1.0,10.0,58,0.00,,---,0.00,VWS V14.01,2013-09-06 18:53:00,
2013-09-06 13:54:00,84.4,68.5,30.06,East,101,3.0,10.0,59,0.00,,---,0.00,VWS V14.01,2013-09-06 18:54:00,
2013-09-06 13:57:00,84.8,68.4,30.06,SE,141,4.0,10.0,58,0.00,,---,0.00,VWS V14.01,2013-09-06 18:57:00,
2013-09-06 13:58:00,84.9,68.5,30.06,SE,141,2.0,10.0,58,0.00,,---,0.00,VWS V14.01,2013-09-06 18:58:00,
2013-09-06 13:59:00,85.0,68.6,30.06,SE,141,4.0,10.0,58,0.00,,---,0.00,VWS V14.01,2013-09-06 18:59:00,
2013-09-06 14:00:00,83.6,67.8,30.08,SE,136,1.0,11.0,59,0.00,,---,0.00,VWS V14.01,2013-09-06 19:00:00,
2013-09-06 14:01:00,85.2,68.3,30.06,ESE,122,3.0,10.0,57,0.00,,---,0.00,VWS V14.01,2013-09-06 19:01:00,
2013-09-06 14:02:00,85.1,67.1,30.06,SE,145,2.0,10.0,55,0.00,,---,0.00,VWS V14.01,2013-09-06 19:02:00,
2013-09-06 14:03:00,85.1,67.1,30.06,SE,145,0.0,10.0,55,0.00,,---,0.00,VWS V14.01,2013-09-06 19:03:00,
2013-09-06 14:04:00,85.2,68.8,30.06,SE,127,6.0,10.0,58,0.00,,---,0.00,VWS V14.01,2013-09-06 19:04:00,
2013-09-06 14:06:00,85.5,68.5,30.05,SSE,156,6.0,10.0,57,0.00,,---,0.00,VWS V14.01,2013-09-06 19:06:00,
2013-09-06 14:07:00,85.3,66.8,30.06,SSE,160,3.0,10.0,54,0.00,,---,0.00,VWS V14.01,2013-09-06 19:07:00,
2013-09-06 14:08:00,85.4,68.4,30.06,SSE,155,3.0,10.0,57,0.00,,---,0.00,VWS V14.01,2013-09-06 19:08:00,
2013-09-06 14:10:00,85.5,68.0,30.05,SSE,153,5.0,10.0,56,0.00,,---,0.00,VWS V14.01,2013-09-06 19:10:00,
2013-09-06 14:11:00,85.5,68.5,30.05,South,171,1.0,10.0,57,0.00,,---,0.00,VWS V14.01,2013-09-06 19:11:00,
2013-09-06 14:12:00,85.4,67.4,30.05,South,171,0.0,10.0,55,0.00,,---,0.00,VWS V14.01,2013-09-06 19:12:00,
2013-09-06 14:13:00,85.4,67.4,30.05,South,171,0.0,10.0,55,0.00,,---,0.00,VWS V14.01,2013-09-06 19:13:00,
2013-09-06 14:15:00,85.2,67.2,30.05,NE,41,2.0,10.0,55,0.00,,---,0.00,VWS V14.01,2013-09-06 19:15:00,
2013-09-06 14:18:00,84.8,67.4,30.05,NNE,29,4.0,10.0,56,0.00,,---,0.00,VWS V14.01,2013-09-06 19:18:00,
2013-09-06 14:19:00,84.7,67.3,30.05,NNE,29,0.0,10.0,56,0.00,,---,0.00,VWS V14.01,2013-09-06 19:19:00,
2013-09-06 14:20:00,84.7,67.8,30.05,NNE,29,1.0,10.0,57,0.00,,---,0.00,VWS V14.01,2013-09-06 19:20:00,
2013-09-06 14:23:00,85.1,67.7,30.05,East,96,3.0,10.0,56,0.00,,---,0.00,VWS V14.01,2013-09-06 19:23:00,
2013-09-06 14:24:00,85.3,68.9,30.05,SSE,155,2.0,10.0,58,0.00,,---,0.00,VWS V14.01,2013-09-06 19:24:00,
2013-09-06 14:25:00,85.4,66.9,30.05,SE,132,1.0,10.0,54,0.00,,---,0.00,VWS V14.01,2013-09-06 19:25:00,
2013-09-06 14:26:00,85.3,66.8,30.05,SE,132,0.0,10.0,54,0.00,,---,0.00,VWS V14.01,2013-09-06 19:26:00,
2013-09-06 14:28:00,85.4,67.9,30.05,East,87,3.0,9.0,56,0.00,,---,0.00,VWS V14.01,2013-09-06 19:28:00,
2013-09-06 14:29:00,85.4,67.9,30.05,East,79,4.0,9.0,56,0.00,,---,0.00,VWS V14.01,2013-09-06 19:29:00,
2013-09-06 14:30:00,85.6,68.6,30.05,East,81,1.0,9.0,57,0.00,,---,0.00,VWS V14.01,2013-09-06 19:30:00,
2013-09-06 14:31:00,85.7,68.7,30.05,East,81,1.0,9.0,57,0.00,,---,0.00,VWS V14.01,2013-09-06 19:31:00,
2013-09-06 14:33:00,85.9,68.4,30.04,NE,56,3.0,9.0,56,0.00,,---,0.00,VWS V14.01,2013-09-06 19:33:00,
2013-09-06 14:34:00,85.9,68.4,30.04,ENE,72,3.0,9.0,56,0.00,,---,0.00,VWS V14.01,2013-09-06 19:34:00,
2013-09-06 14:36:00,86.0,68.5,30.05,NE,50,2.0,9.0,56,0.00,,---,0.00,VWS V14.01,2013-09-06 19:36:00,
2013-09-06 14:39:00,85.5,67.5,30.04,NE,47,1.0,9.0,55,0.00,,---,0.00,VWS V14.01,2013-09-06 19:39:00,
2013-09-06 14:40:00,85.4,67.9,30.04,NE,48,3.0,9.0,56,0.00,,---,0.00,VWS V14.01,2013-09-06 19:40:00,
2013-09-06 14:41:00,85.3,67.8,30.04,East,81,0.0,9.0,56,0.00,,---,0.00,VWS V14.01,2013-09-06 19:41:00,
2013-09-06 14:44:00,85.4,68.4,30.04,NNE,21,3.0,9.0,57,0.00,,---,0.00,VWS V14.01,2013-09-06 19:44:00,
2013-09-06 14:46:00,85.4,67.9,30.04,NNE,21,1.0,9.0,56,0.00,,---,0.00,VWS V14.01,2013-09-06 19:46:00,
2013-09-06 14:47:00,85.4,68.4,30.04,NNE,21,1.0,9.0,57,0.00,,---,0.00,VWS V14.01,2013-09-06 19:47:00,
2013-09-06 14:49:00,85.8,69.8,30.04,East,90,2.0,9.0,59,0.00,,---,0.00,VWS V14.01,2013-09-06 19:49:00,
2013-09-06 14:51:00,85.8,67.8,30.04,SE,129,2.0,9.0,55,0.00,,---,0.00,VWS V14.01,2013-09-06 19:51:00,
2013-09-06 14:52:00,85.8,68.3,30.04,ESE,104,4.0,9.0,56,0.00,,---,0.00,VWS V14.01,2013-09-06 19:52:00,
2013-09-06 14:53:00,85.8,68.3,30.04,ESE,102,2.0,9.0,56,0.00,,---,0.00,VWS V14.01,2013-09-06 19:53:00,
2013-09-06 14:54:00,85.9,69.4,30.04,ESE,119,4.0,9.0,58,0.00,,---,0.00,VWS V14.01,2013-09-06 19:54:00,
2013-09-06 14:57:00,86.1,68.1,30.04,SE,137,3.0,5.0,55,0.00,,---,0.00,VWS V14.01,2013-09-06 19:57:00,
2013-09-06 14:58:00,85.9,67.9,30.04,ENE,62,3.0,9.0,55,0.00,,---,0.00,VWS V14.01,2013-09-06 19:58:00,
2013-09-06 14:59:00,85.8,68.3,30.04,NE,46,1.0,9.0,56,0.00,,---,0.00,VWS V14.01,2013-09-06 19:59:00,
2013-09-06 15:00:00,84.6,68.7,30.06,ESE,104,8.0,10.0,59,0.00,,---,0.00,VWS V14.01,2013-09-06 20:00:00,
2013-09-06 15:02:00,86.2,68.2,30.03,ESE,110,6.0,9.0,55,0.00,,---,0.00,VWS V14.01,2013-09-06 20:02:00,
2013-09-06 15:04:00,86.1,68.1,30.03,SE,125,5.0,9.0,55,0.00,,---,0.00,VWS V14.01,2013-09-06 20:04:00,
2013-09-06 15:05:00,86.0,67.4,30.03,ESE,115,3.0,9.0,54,0.00,,---,0.00,VWS V14.01,2013-09-06 20:05:00,
2013-09-06 15:07:00,85.7,67.7,30.03,ENE,62,5.0,9.0,55,0.00,,---,0.00,VWS V14.01,2013-09-06 20:07:00,
2013-09-06 15:08:00,85.7,68.2,30.03,ENE,60,3.0,9.0,56,0.00,,---,0.00,VWS V14.01,2013-09-06 20:08:00,
2013-09-06 15:09:00,85.5,67.0,30.03,ENE,60,2.0,9.0,54,0.00,,---,0.00,VWS V14.01,2013-09-06 20:09:00,
2013-09-06 15:10:00,85.3,67.3,30.03,NE,46,3.0,9.0,55,0.00,,---,0.00,VWS V14.01,2013-09-06 20:10:00,
2013-09-06 15:12:00,85.3,67.3,30.03,NNE,20,0.0,9.0,55,0.00,,---,0.00,VWS V14.01,2013-09-06 20:12:00,
2013-09-06 15:13:00,85.3,67.3,30.03,NNE,20,1.0,9.0,55,0.00,,---,0.00,VWS V14.01,2013-09-06 20:13:00,
2013-09-06 15:14:00,85.5,67.5,30.03,NNE,27,4.0,9.0,55,0.00,,---,0.00,VWS V14.01,2013-09-06 20:14:00,
2013-09-06 15:15:00,85.5,67.5,30.03,NNE,29,3.0,9.0,55,0.00,,---,0.00,VWS V14.01,2013-09-06 20:15:00,
2013-09-06 15:18:00,85.6,67.6,30.03,NE,39,1.0,9.0,55,0.00,,---,0.00,VWS V14.01,2013-09-06 20:18:00,
2013-09-06 15:19:00,85.8,67.8,30.03,ESE,116,4.0,9.0,55,0.00,,---,0.00,VWS V14.01,2013-09-06 20:19:00,
2013-09-06 15:20:00,85.9,67.9,30.03,ESE,116,2.0,9.0,55,0.00,,---,0.00,VWS V14.01,2013-09-06 20:20:00,
2013-09-06 15:21:00,85.9,67.9,30.03,ESE,116,2.0,9.0,55,0.00,,---,0.00,VWS V14.01,2013-09-06 20:21:00,
2013-09-06 15:23:00,86.4,69.4,30.02,SE,129,2.0,9.0,57,0.00,,---,0.00,VWS V14.01,2013-09-06 20:23:00,
2013-09-06 15:25:00,86.6,68.5,30.02,ENE,69,7.0,9.0,55,0.00,,---,0.00,VWS V14.01,2013-09-06 20:25:00,
2013-09-06 15:26:00,86.5,68.4,30.02,East,83,3.0,9.0,55,0.00,,---,0.00,VWS V14.01,2013-09-06 20:26:00,
2013-09-06 15:27:00,86.3,67.7,30.02,East,79,3.0,7.0,54,0.00,,---,0.00,VWS V14.01,2013-09-06 20:27:00,
2013-09-06 15:28:00,86.3,67.7,30.02,East,81,3.0,7.0,54,0.00,,---,0.00,VWS V14.01,2013-09-06 20:28:00,
2013-09-06 15:29:00,86.2,67.6,30.02,East,81,1.0,7.0,54,0.00,,---,0.00,VWS V14.01,2013-09-06 20:29:00,
2013-09-06 15:30:00,86.1,67.5,30.02,East,81,2.0,7.0,54,0.00,,---,0.00,VWS V14.01,2013-09-06 20:30:00,
2013-09-06 15:31:00,86.2,67.1,30.02,SSE,151,3.0,7.0,53,0.00,,---,0.00,VWS V14.01,2013-09-06 20:31:00,
2013-09-06 15:33:00,86.3,67.7,30.02,SSE,151,4.0,7.0,54,0.00,,---,0.00,VWS V14.01,2013-09-06 20:33:00,
2013-09-06 15:34:00,86.5,67.9,30.02,SE,131,4.0,7.0,54,0.00,,---,0.00,VWS V14.01,2013-09-06 20:34:00,
2013-09-06 15:35:00,86.4,66.7,30.02,ESE,115,5.0,7.0,52,0.00,,---,0.00,VWS V14.01,2013-09-06 20:35:00,
2013-09-06 15:36:00,86.3,67.2,30.02,ESE,121,4.0,8.0,53,0.00,,---,0.00,VWS V14.01,2013-09-06 20:36:00,
2013-09-06 15:37:00,86.3,68.2,30.02,ESE,104,5.0,8.0,55,0.00,,---,0.00,VWS V14.01,2013-09-06 20:37:00,
2013-09-06 15:38:00,86.3,66.6,30.02,East,93,3.0,8.0,52,0.00,,---,0.00,VWS V14.01,2013-09-06 20:38:00,
2013-09-06 15:39:00,86.1,65.9,30.02,East,98,3.0,8.0,51,0.00,,---,0.00,VWS V14.01,2013-09-06 20:39:00,
2013-09-06 15:40:00,86.1,66.4,30.02,ESE,123,2.0,8.0,52,0.00,,---,0.00,VWS V14.01,2013-09-06 20:40:00,
2013-09-06 15:41:00,86.1,65.9,30.02,SE,141,3.0,8.0,51,0.00,,---,0.00,VWS V14.01,2013-09-06 20:41:00,
2013-09-06 15:42:00,86.1,65.9,30.02,SSE,162,2.0,8.0,51,0.00,,---,0.00,VWS V14.01,2013-09-06 20:42:00,
2013-09-06 15:43:00,86.1,65.9,30.02,South,172,3.0,8.0,51,0.00,,---,0.00,VWS V14.01,2013-09-06 20:43:00,
2013-09-06 15:44:00,86.0,65.8,30.02,SE,127,6.0,8.0,51,0.00,,---,0.00,VWS V14.01,2013-09-06 20:44:00,
2013-09-06 15:45:00,86.1,65.3,30.02,SE,141,4.0,8.0,50,0.00,,---,0.00,VWS V14.01,2013-09-06 20:45:00,
2013-09-06 15:46:00,86.0,65.2,30.01,SE,135,4.0,8.0,50,0.00,,---,0.00,VWS V14.01,2013-09-06 20:46:00,
2013-09-06 15:47:00,86.1,65.9,30.01,ESE,112,6.0,8.0,51,0.00,,---,0.00,VWS V14.01,2013-09-06 20:47:00,
2013-09-06 15:48:00,86.1,65.9,30.01,SE,125,2.0,8.0,51,0.00,,---,0.00,VWS V14.01,2013-09-06 20:48:00,
2013-09-06 15:49:00,86.3,66.1,30.01,SE,127,5.0,8.0,51,0.00,,---,0.00,VWS V14.01,2013-09-06 20:49:00,
2013-09-06 15:50:00,86.2,65.4,30.01,SE,127,1.0,8.0,50,0.00,,---,0.00,VWS V14.01,2013-09-06 20:50:00,
2013-09-06 15:51:00,86.0,65.2,30.01,SE,127,0.0,8.0,50,0.00,,---,0.00,VWS V14.01,2013-09-06 20:51:00,
2013-09-06 15:52:00,85.9,65.1,30.01,SE,127,0.0,8.0,50,0.00,,---,0.00,VWS V14.01,2013-09-06 20:52:00,
2013-09-06 15:53:00,85.9,65.1,30.01,SE,127,0.0,8.0,50,0.00,,---,0.00,VWS V14.01,2013-09-06 20:53:00,
2013-09-06 15:54:00,85.9,66.2,30.01,SE,125,8.0,8.0,52,0.00,,---,0.00,VWS V14.01,2013-09-06 20:54:00,
2013-09-06 15:56:00,86.0,66.9,30.01,East,80,4.0,8.0,53,0.00,,---,0.00,VWS V14.01,2013-09-06 20:56:00,
2013-09-06 15:57:00,86.1,67.0,30.01,ESE,102,3.0,6.0,53,0.00,,---,0.00,VWS V14.01,2013-09-06 20:57:00,
2013-09-06 15:58:00,86.4,67.3,30.01,ESE,120,2.0,6.0,53,0.00,,---,0.00,VWS V14.01,2013-09-06 20:58:00,
2013-09-06 16:00:00,86.1,68.1,30.04,ESE,123,2.0,9.0,55,0.00,,---,0.00,VWS V14.01,2013-09-06 21:00:00,
2013-09-06 16:01:00,86.7,66.4,30.01,SE,143,0.0,6.0,51,0.00,,---,0.00,VWS V14.01,2013-09-06 21:01:00,
2013-09-06 16:02:00,86.7,67.0,30.01,SE,131,4.0,7.0,52,0.00,,---,0.00,VWS V14.01,2013-09-06 21:02:00,
2013-09-06 16:03:00,86.7,65.9,30.01,ESE,118,5.0,7.0,50,0.00,,---,0.00,VWS V14.01,2013-09-06 21:03:00,
2013-09-06 16:06:00,86.5,66.2,30.01,ESE,111,0.0,7.0,51,0.00,,---,0.00,VWS V14.01,2013-09-06 21:06:00,
2013-09-06 16:07:00,86.4,65.6,30.01,ESE,111,0.0,7.0,50,0.00,,---,0.00,VWS V14.01,2013-09-06 21:07:00,
2013-09-06 16:08:00,86.2,64.8,30.01,ESE,111,1.0,7.0,49,0.00,,---,0.00,VWS V14.01,2013-09-06 21:08:00,
2013-09-06 16:09:00,86.1,65.3,30.01,ESE,111,0.0,7.0,50,0.00,,---,0.00,VWS V14.01,2013-09-06 21:09:00,
2013-09-06 16:11:00,86.1,65.9,30.01,ESE,111,1.0,7.0,51,0.00,,---,0.00,VWS V14.01,2013-09-06 21:11:00,
2013-09-06 16:12:00,86.1,66.4,30.01,ESE,112,1.0,7.0,52,0.00,,---,0.00,VWS V14.01,2013-09-06 21:12:00,
2013-09-06 16:13:00,86.1,66.4,30.01,SSE,148,5.0,7.0,52,0.00,,---,0.00,VWS V14.01,2013-09-06 21:13:00,
2013-09-06 16:14:00,86.2,66.0,30.01,SE,137,4.0,7.0,51,0.00,,---,0.00,VWS V14.01,2013-09-06 21:14:00,
2013-09-06 16:16:00,86.1,65.3,30.01,SE,131,5.0,7.0,50,0.00,,---,0.00,VWS V14.01,2013-09-06 21:16:00,
2013-09-06 16:17:00,86.2,65.4,30.01,SE,127,5.0,7.0,50,0.00,,---,0.00,VWS V14.01,2013-09-06 21:17:00,
2013-09-06 16:18:00,86.1,65.3,30.01,SE,135,4.0,7.0,50,0.00,,---,0.00,VWS V14.01,2013-09-06 21:18:00,
2013-09-06 16:19:00,86.1,65.3,30.01,South,187,4.0,7.0,50,0.00,,---,0.00,VWS V14.01,2013-09-06 21:19:00,
2013-09-06 16:21:00,86.2,64.8,30.01,SE,141,1.0,7.0,49,0.00,,---,0.00,VWS V14.01,2013-09-06 21:21:00,
2013-09-06 16:22:00,86.3,66.1,30.01,SSE,155,3.0,7.0,51,0.00,,---,0.00,VWS V14.01,2013-09-06 21:22:00,
2013-09-06 16:23:00,86.4,66.2,30.01,SSE,153,2.0,7.0,51,0.00,,---,0.00,VWS V14.01,2013-09-06 21:23:00,
2013-09-06 16:24:00,86.4,65.6,30.01,SE,139,3.0,7.0,50,0.00,,---,0.00,VWS V14.01,2013-09-06 21:24:00,
2013-09-06 16:26:00,86.2,64.8,30.01,SSE,158,4.0,4.0,49,0.00,,---,0.00,VWS V14.01,2013-09-06 21:26:00,
2013-09-06 16:27:00,86.1,64.7,30.01,SSE,157,1.0,4.0,49,0.00,,---,0.00,VWS V14.01,2013-09-06 21:27:00,
2013-09-06 16:29:00,86.2,65.4,30.01,SSE,156,3.0,4.0,50,0.00,,---,0.00,VWS V14.01,2013-09-06 21:29:00,
2013-09-06 16:30:00,86.3,64.9,30.01,SSE,150,6.0,8.0,49,0.00,,---,0.00,VWS V14.01,2013-09-06 21:30:00,
2013-09-06 16:31:00,86.2,64.8,30.01,SE,137,6.0,8.0,49,0.00,,---,0.00,VWS V14.01,2013-09-06 21:31:00,
2013-09-06 16:33:00,86.1,64.7,30.01,SSE,149,4.0,8.0,49,0.00,,---,0.00,VWS V14.01,2013-09-06 21:33:00,
2013-09-06 16:34:00,86.1,64.7,30.01,SE,130,4.0,8.0,49,0.00,,---,0.00,VWS V14.01,2013-09-06 21:34:00,
2013-09-06 16:35:00,86.0,64.6,30.01,SSE,154,2.0,8.0,49,0.00,,---,0.00,VWS V14.01,2013-09-06 21:35:00,
2013-09-06 16:36:00,86.0,65.8,30.01,South,176,4.0,8.0,51,0.00,,---,0.00,VWS V14.01,2013-09-06 21:36:00,
2013-09-06 16:38:00,86.1,65.9,30.01,SSE,154,6.0,8.0,51,0.00,,---,0.00,VWS V14.01,2013-09-06 21:38:00,
2013-09-06 16:39:00,86.1,65.3,30.01,SE,146,3.0,8.0,50,0.00,,---,0.00,VWS V14.01,2013-09-06 21:39:00,
2013-09-06 16:40:00,86.1,65.3,30.01,SE,135,3.0,8.0,50,0.00,,---,0.00,VWS V14.01,2013-09-06 21:40:00,
2013-09-06 16:42:00,86.1,64.7,30.01,SE,142,2.0,8.0,49,0.00,,---,0.00,VWS V14.01,2013-09-06 21:42:00,
2013-09-06 16:43:00,86.1,66.4,30.01,SE,139,3.0,8.0,52,0.00,,---,0.00,VWS V14.01,2013-09-06 21:43:00,
2013-09-06 16:44:00,86.2,65.4,30.01,SE,139,1.0,8.0,50,0.00,,---,0.00,VWS V14.01,2013-09-06 21:44:00,
2013-09-06 16:45:00,86.3,65.5,30.01,SE,141,4.0,8.0,50,0.00,,---,0.00,VWS V14.01,2013-09-06 21:45:00,
2013-09-06 16:46:00,86.2,65.4,30.01,SSE,147,3.0,8.0,50,0.00,,---,0.00,VWS V14.01,2013-09-06 21:46:00,
2013-09-06 16:47:00,86.2,66.0,30.01,SSE,147,0.0,8.0,51,0.00,,---,0.00,VWS V14.01,2013-09-06 21:47:00,
2013-09-06 16:48:00,86.2,66.0,30.01,SE,146,0.0,8.0,51,0.00,,---,0.00,VWS V14.01,2013-09-06 21:48:00,
2013-09-06 16:49:00,86.2,66.0,30.01,SE,146,1.0,8.0,51,0.00,,---,0.00,VWS V14.01,2013-09-06 21:49:00,
2013-09-06 16:51:00,86.3,67.2,30.01,South,179,4.0,8.0,53,0.00,,---,0.00,VWS V14.01,2013-09-06 21:51:00,
2013-09-06 16:52:00,86.3,66.1,30.01,SSE,156,2.0,8.0,51,0.00,,---,0.00,VWS V14.01,2013-09-06 21:52:00,
2013-09-06 16:53:00,86.2,67.1,30.01,SE,139,4.0,8.0,53,0.00,,---,0.00,VWS V14.01,2013-09-06 21:53:00,
2013-09-06 16:55:00,86.1,67.0,30.01,SSE,148,0.0,8.0,53,0.00,,---,0.00,VWS V14.01,2013-09-06 21:55:00,
2013-09-06 16:56:00,86.0,66.3,30.01,SSE,148,2.0,8.0,52,0.00,,---,0.00,VWS V14.01,2013-09-06 21:56:00,
2013-09-06 16:57:00,86.1,67.0,30.01,SSE,148,0.0,4.0,53,0.00,,---,0.00,VWS V14.01,2013-09-06 21:57:00,
2013-09-06 16:59:00,85.9,66.2,30.01,SSE,148,0.0,4.0,52,0.00,,---,0.00,VWS V14.01,2013-09-06 21:59:00,
2013-09-06 17:00:00,85.9,66.2,30.01,SSE,147,0.0,4.0,52,0.00,,---,0.00,VWS V14.01,2013-09-06 22:00:00,
2013-09-06 17:01:00,85.8,67.2,30.00,SSE,147,0.0,4.0,54,0.00,,---,0.00,VWS V14.01,2013-09-06 22:01:00,
2013-09-06 17:02:00,85.8,67.2,30.01,SSE,148,0.0,4.0,54,0.00,,---,0.00,VWS V14.01,2013-09-06 22:02:00,
2013-09-06 17:05:00,86.0,69.5,30.00,SSE,148,1.0,4.0,58,0.00,,---,0.00,VWS V14.01,2013-09-06 22:05:00,
2013-09-06 17:06:00,86.1,70.1,30.00,SSE,148,1.0,4.0,59,0.00,,---,0.00,VWS V14.01,2013-09-06 22:06:00,
2013-09-06 17:07:00,85.9,66.8,30.00,SSE,148,0.0,4.0,53,0.00,,---,0.00,VWS V14.01,2013-09-06 22:07:00,
2013-09-06 17:08:00,85.9,66.8,30.00,SSW,211,2.0,4.0,53,0.00,,---,0.00,VWS V14.01,2013-09-06 22:08:00,
2013-09-06 17:10:00,85.9,67.9,30.00,South,179,3.0,4.0,55,0.00,,---,0.00,VWS V14.01,2013-09-06 22:10:00,
2013-09-06 17:11:00,85.8,67.2,30.00,SSE,162,7.0,7.0,54,0.00,,---,0.00,VWS V14.01,2013-09-06 22:11:00,
2013-09-06 17:12:00,85.7,67.2,30.00,SE,138,5.0,7.0,54,0.00,,---,0.00,VWS V14.01,2013-09-06 22:12:00,
2013-09-06 17:13:00,85.6,66.5,30.00,SE,138,3.0,7.0,53,0.00,,---,0.00,VWS V14.01,2013-09-06 22:13:00,
2013-09-06 17:15:00,85.6,66.5,30.00,SE,137,5.0,7.0,53,0.00,,---,0.00,VWS V14.01,2013-09-06 22:15:00,
2013-09-06 17:16:00,85.6,66.5,30.00,SSE,152,5.0,7.0,53,0.00,,---,0.00,VWS V14.01,2013-09-06 22:16:00,
2013-09-06 17:17:00,85.5,67.0,30.00,SSE,154,1.0,7.0,54,0.00,,---,0.00,VWS V14.01,2013-09-06 22:17:00,
2013-09-06 17:18:00,85.5,67.0,30.00,SSE,152,4.0,7.0,54,0.00,,---,0.00,VWS V14.01,2013-09-06 22:18:00,
2013-09-06 17:20:00,85.5,67.0,30.00,SE,132,2.0,7.0,54,0.00,,---,0.00,VWS V14.01,2013-09-06 22:20:00,
2013-09-06 17:21:00,85.5,67.0,30.00,SE,135,3.0,7.0,54,0.00,,---,0.00,VWS V14.01,2013-09-06 22:21:00,
2013-09-06 17:23:00,85.5,67.0,30.00,SE,141,3.0,7.0,54,0.00,,---,0.00,VWS V14.01,2013-09-06 22:23:00,
2013-09-06 17:24:00,85.4,66.9,30.00,SE,140,3.0,7.0,54,0.00,,---,0.00,VWS V14.01,2013-09-06 22:24:00,
2013-09-06 17:25:00,85.4,66.3,30.00,SSE,148,3.0,7.0,53,0.00,,---,0.00,VWS V14.01,2013-09-06 22:25:00,
2013-09-06 17:27:00,85.3,66.8,30.00,SSE,148,1.0,4.0,54,0.00,,---,0.00,VWS V14.01,2013-09-06 22:27:00,
2013-09-06 17:28:00,85.3,66.2,30.00,SSE,148,2.0,4.0,53,0.00,,---,0.00,VWS V14.01,2013-09-06 22:28:00,
2013-09-06 17:29:00,85.3,67.3,30.00,SE,133,4.0,4.0,55,0.00,,---,0.00,VWS V14.01,2013-09-06 22:29:00,
2013-09-06 17:30:00,85.2,66.7,30.00,SE,143,2.0,5.0,54,0.00,,---,0.00,VWS V14.01,2013-09-06 22:30:00,
2013-09-06 17:31:00,85.2,66.7,30.00,SE,143,2.0,5.0,54,0.00,,---,0.00,VWS V14.01,2013-09-06 22:31:00,
2013-09-06 17:32:00,85.2,67.2,30.00,SE,143,3.0,5.0,55,0.00,,---,0.00,VWS V14.01,2013-09-06 22:32:00,
2013-09-06 17:33:00,85.2,66.7,30.00,SE,143,2.0,5.0,54,0.00,,---,0.00,VWS V14.01,2013-09-06 22:33:00,
2013-09-06 17:35:00,85.0,68.1,30.01,SE,143,3.0,5.0,57,0.00,,---,0.00,VWS V14.01,2013-09-06 22:35:00,
2013-09-06 17:36:00,84.9,66.9,30.01,SE,135,3.0,5.0,55,0.00,,---,0.00,VWS V14.01,2013-09-06 22:36:00,
2013-09-06 17:37:00,84.8,66.3,30.01,SE,135,3.0,5.0,54,0.00,,---,0.00,VWS V14.01,2013-09-06 22:37:00,
2013-09-06 17:38:00,84.9,66.4,30.01,SE,135,1.0,5.0,54,0.00,,---,0.00,VWS V14.01,2013-09-06 22:38:00,
2013-09-06 17:40:00,85.0,66.5,30.01,SE,135,2.0,5.0,54,0.00,,---,0.00,VWS V14.01,2013-09-06 22:40:00,
2013-09-06 17:41:00,85.0,67.0,30.01,SE,135,1.0,5.0,55,0.00,,---,0.00,VWS V14.01,2013-09-06 22:41:00,
2013-09-06 17:42:00,84.9,67.5,30.01,SE,135,1.0,5.0,56,0.00,,---,0.00,VWS V14.01,2013-09-06 22:42:00,
2013-09-06 17:43:00,84.9,67.5,30.01,SE,135,1.0,5.0,56,0.00,,---,0.00,VWS V14.01,2013-09-06 22:43:00,
2013-09-06 17:45:00,84.7,67.8,30.00,SE,135,1.0,5.0,57,0.00,,---,0.00,VWS V14.01,2013-09-06 22:45:00,
2013-09-06 17:46:00,84.6,68.2,30.00,SE,135,1.0,5.0,58,0.00,,---,0.00,VWS V14.01,2013-09-06 22:46:00,
2013-09-06 17:47:00,84.6,67.2,30.00,SE,135,1.0,5.0,56,0.00,,---,0.00,VWS V14.01,2013-09-06 22:47:00,
2013-09-06 17:48:00,84.5,67.1,30.01,SE,135,1.0,5.0,56,0.00,,---,0.00,VWS V14.01,2013-09-06 22:48:00,
2013-09-06 17:51:00,84.4,68.5,30.00,West,260,0.0,5.0,59,0.00,,---,0.00,VWS V14.01,2013-09-06 22:51:00,
2013-09-06 17:52:00,84.3,68.4,30.00,West,260,1.0,5.0,59,0.00,,---,0.00,VWS V14.01,2013-09-06 22:52:00,
2013-09-06 17:53:00,84.1,69.2,30.00,WSW,239,0.0,5.0,61,0.00,,---,0.00,VWS V14.01,2013-09-06 22:53:00,
2013-09-06 17:56:00,83.7,67.4,30.00,SSE,168,2.0,3.0,58,0.00,,---,0.00,VWS V14.01,2013-09-06 22:56:00,
2013-09-06 17:57:00,83.7,66.9,30.00,SSE,167,1.0,3.0,57,0.00,,---,0.00,VWS V14.01,2013-09-06 22:57:00,
2013-09-06 17:58:00,83.7,66.9,30.00,SSE,167,1.0,3.0,57,0.00,,---,0.00,VWS V14.01,2013-09-06 22:58:00,
2013-09-06 18:00:00,86.0,66.3,30.01,SSE,148,2.0,8.0,52,0.00,,---,0.00,VWS V14.01,2013-09-06 23:00:00,
2013-09-06 18:01:00,83.7,68.8,30.00,SSE,167,0.0,3.0,61,0.00,,---,0.00,VWS V14.01,2013-09-06 23:01:00,
2013-09-06 18:02:00,83.7,68.8,30.00,SSE,167,0.0,3.0,61,0.00,,---,0.00,VWS V14.01,2013-09-06 23:02:00,
2013-09-06 18:03:00,83.7,68.8,30.00,SSE,167,0.0,3.0,61,0.00,,---,0.00,VWS V14.01,2013-09-06 23:03:00,
2013-09-06 18:06:00,83.5,68.7,30.00,SSE,167,0.0,3.0,61,0.00,,---,0.00,VWS V14.01,2013-09-06 23:06:00,
2013-09-06 18:07:00,83.5,68.7,30.00,SSE,167,0.0,3.0,61,0.00,,---,0.00,VWS V14.01,2013-09-06 23:07:00,
2013-09-06 18:08:00,83.5,68.7,30.00,SSE,167,0.0,3.0,61,0.00,,---,0.00,VWS V14.01,2013-09-06 23:08:00,
2013-09-06 18:11:00,83.5,68.2,30.00,SSE,167,0.0,3.0,60,0.00,,---,0.00,VWS V14.01,2013-09-06 23:11:00,
2013-09-06 18:12:00,83.5,67.7,30.00,SSE,167,0.0,3.0,59,0.00,,---,0.00,VWS V14.01,2013-09-06 23:12:00,
2013-09-06 18:13:00,83.5,67.7,30.00,SSE,167,0.0,3.0,59,0.00,,---,0.00,VWS V14.01,2013-09-06 23:13:00,
2013-09-06 18:14:00,83.5,67.7,30.00,SSE,167,0.0,3.0,59,0.00,,---,0.00,VWS V14.01,2013-09-06 23:14:00,
2013-09-06 18:16:00,83.4,69.0,30.00,SSE,167,0.0,3.0,62,0.00,,---,0.00,VWS V14.01,2013-09-06 23:16:00,
2013-09-06 18:18:00,83.2,68.8,30.00,SSE,167,0.0,3.0,62,0.00,,---,0.00,VWS V14.01,2013-09-06 23:18:00,
2013-09-06 18:19:00,83.0,68.2,30.00,SSE,167,0.0,3.0,61,0.00,,---,0.00,VWS V14.01,2013-09-06 23:19:00,
2013-09-06 18:20:00,82.9,68.1,30.00,SSE,167,0.0,3.0,61,0.00,,---,0.00,VWS V14.01,2013-09-06 23:20:00,
2013-09-06 18:22:00,82.8,68.0,30.00,SSE,167,0.0,3.0,61,0.00,,---,0.00,VWS V14.01,2013-09-06 23:22:00,
2013-09-06 18:23:00,82.7,68.4,30.00,SSE,167,0.0,3.0,62,0.00,,---,0.00,VWS V14.01,2013-09-06 23:23:00,
2013-09-06 18:24:00,82.6,68.7,30.00,SSE,167,0.0,3.0,63,0.00,,---,0.00,VWS V14.01,2013-09-06 23:24:00,
2013-09-06 18:26:00,82.3,68.9,30.00,SSE,167,0.0,3.0,64,0.00,,---,0.00,VWS V14.01,2013-09-06 23:26:00,
2013-09-06 18:27:00,82.2,68.4,30.00,SSE,167,0.0,1.0,63,0.00,,---,0.00,VWS V14.01,2013-09-06 23:27:00,
2013-09-06 18:28:00,82.1,68.3,30.00,SSE,167,0.0,1.0,63,0.00,,---,0.00,VWS V14.01,2013-09-06 23:28:00,
2013-09-06 18:29:00,82.0,68.6,30.00,SSE,167,0.0,1.0,64,0.00,,---,0.00,VWS V14.01,2013-09-06 23:29:00,
2013-09-06 18:30:00,81.9,69.0,30.00,SSE,167,0.0,1.0,65,0.00,,---,0.00,VWS V14.01,2013-09-06 23:30:00,
2013-09-06 18:31:00,81.7,68.3,29.99,SSE,167,0.0,1.0,64,0.00,,---,0.00,VWS V14.01,2013-09-06 23:31:00,
2013-09-06 18:32:00,81.6,68.2,29.99,SSE,167,0.0,1.0,64,0.00,,---,0.00,VWS V14.01,2013-09-06 23:32:00,
2013-09-06 18:33:00,81.6,68.7,29.99,SSE,167,0.0,1.0,65,0.00,,---,0.00,VWS V14.01,2013-09-06 23:33:00,
2013-09-06 18:34:00,81.5,68.6,29.99,SSE,167,0.0,1.0,65,0.00,,---,0.00,VWS V14.01,2013-09-06 23:34:00,
2013-09-06 18:35:00,81.5,68.6,29.99,SSE,167,1.0,1.0,65,0.00,,---,0.00,VWS V14.01,2013-09-06 23:35:00,
2013-09-06 18:36:00,81.4,68.5,30.00,SSE,167,0.0,1.0,65,0.00,,---,0.00,VWS V14.01,2013-09-06 23:36:00,
2013-09-06 18:37:00,81.4,68.5,29.99,SSE,167,1.0,1.0,65,0.00,,---,0.00,VWS V14.01,2013-09-06 23:37:00,
2013-09-06 18:38:00,81.4,68.5,29.99,SSE,167,1.0,2.0,65,0.00,,---,0.00,VWS V14.01,2013-09-06 23:38:00,
2013-09-06 18:39:00,81.4,68.5,29.99,SSE,167,1.0,2.0,65,0.00,,---,0.00,VWS V14.01,2013-09-06 23:39:00,
2013-09-06 18:40:00,81.3,68.4,29.99,SSE,167,0.0,2.0,65,0.00,,---,0.00,VWS V14.01,2013-09-06 23:40:00,
2013-09-06 18:41:00,81.3,68.4,29.99,SSE,167,0.0,2.0,65,0.00,,---,0.00,VWS V14.01,2013-09-06 23:41:00,
2013-09-06 18:42:00,81.2,68.3,29.99,SSE,167,0.0,2.0,65,0.00,,---,0.00,VWS V14.01,2013-09-06 23:42:00,
2013-09-06 18:43:00,81.2,68.3,29.99,SSE,167,1.0,2.0,65,0.00,,---,0.00,VWS V14.01,2013-09-06 23:43:00,
2013-09-06 18:44:00,81.2,68.3,29.99,SSE,167,0.0,2.0,65,0.00,,---,0.00,VWS V14.01,2013-09-06 23:44:00,
2013-09-06 18:45:00,81.1,68.2,29.99,SSE,167,0.0,2.0,65,0.00,,---,0.00,VWS V14.01,2013-09-06 23:45:00,
2013-09-06 18:46:00,81.1,68.2,29.99,SSE,167,0.0,2.0,65,0.00,,---,0.00,VWS V14.01,2013-09-06 23:46:00,
2013-09-06 18:48:00,81.0,68.1,29.99,SSE,167,0.0,2.0,65,0.00,,---,0.00,VWS V14.01,2013-09-06 23:48:00,
2013-09-06 18:49:00,81.0,68.6,29.99,SSE,167,0.0,2.0,66,0.00,,---,0.00,VWS V14.01,2013-09-06 23:49:00,
2013-09-06 18:50:00,81.1,68.7,29.99,SSE,167,0.0,2.0,66,0.00,,---,0.00,VWS V14.01,2013-09-06 23:50:00,
2013-09-06 18:52:00,81.0,69.4,29.99,SSE,167,0.0,2.0,68,0.00,,---,0.00,VWS V14.01,2013-09-06 23:52:00,
2013-09-06 18:53:00,81.0,69.4,29.99,SSE,167,0.0,2.0,68,0.00,,---,0.00,VWS V14.01,2013-09-06 23:53:00,
2013-09-06 18:54:00,81.0,69.4,29.99,SSE,167,0.0,2.0,68,0.00,,---,0.00,VWS V14.01,2013-09-06 23:54:00,
2013-09-06 18:55:00,80.9,69.4,29.99,SSE,167,0.0,2.0,68,0.00,,---,0.00,VWS V14.01,2013-09-06 23:55:00,
2013-09-06 18:56:00,80.8,69.3,29.99,SSE,167,0.0,0.0,68,0.00,,---,0.00,VWS V14.01,2013-09-06 23:56:00,
2013-09-06 18:57:00,80.7,69.2,29.99,SSE,167,0.0,0.0,68,0.00,,---,0.00,VWS V14.01,2013-09-06 23:57:00,
2013-09-06 18:58:00,80.7,69.2,29.99,SSE,167,0.0,0.0,68,0.00,,---,0.00,VWS V14.01,2013-09-06 23:58:00,
2013-09-06 18:59:00,80.6,69.5,29.99,SSE,167,0.0,0.0,69,0.00,,---,0.00,VWS V14.01,2013-09-06 23:59:00,
2013-09-06 19:00:00,80.5,69.0,29.99,SSE,167,0.0,0.0,68,0.00,,---,0.00,VWS V14.01,2013-09-07 00:00:00,
2013-09-06 19:02:00,80.3,68.8,29.99,SSE,167,0.0,0.0,68,0.00,,---,0.00,VWS V14.01,2013-09-07 00:02:00,
2013-09-06 19:03:00,80.1,68.2,29.99,SSE,167,0.0,0.0,67,0.00,,---,0.00,VWS V14.01,2013-09-07 00:03:00,
2013-09-06 19:04:00,80.0,68.1,29.99,SSE,167,0.0,0.0,67,0.00,,---,0.00,VWS V14.01,2013-09-07 00:04:00,
2013-09-06 19:05:00,79.9,68.0,29.99,SSE,167,0.0,0.0,67,0.00,,---,0.00,VWS V14.01,2013-09-07 00:05:00,
2013-09-06 19:07:00,79.7,68.2,29.99,SSE,167,0.0,0.0,68,0.00,,---,0.00,VWS V14.01,2013-09-07 00:07:00,
2013-09-06 19:08:00,79.6,68.1,29.99,SSE,167,0.0,0.0,68,0.00,,---,0.00,VWS V14.01,2013-09-07 00:08:00,
2013-09-06 19:09:00,79.5,68.0,29.99,SSE,167,0.0,0.0,68,0.00,,---,0.00,VWS V14.01,2013-09-07 00:09:00,
2013-09-06 19:11:00,79.2,68.6,29.99,SSE,167,0.0,1.0,70,0.00,,---,0.00,VWS V14.01,2013-09-07 00:11:00,
2013-09-06 19:13:00,79.0,69.2,29.99,SSE,167,0.0,1.0,72,0.00,,---,0.00,VWS V14.01,2013-09-07 00:13:00,
2013-09-06 19:14:00,78.9,69.1,29.99,SSE,167,0.0,1.0,72,0.00,,---,0.00,VWS V14.01,2013-09-07 00:14:00,
2013-09-06 19:16:00,78.6,68.8,29.99,SSE,167,0.0,1.0,72,0.00,,---,0.00,VWS V14.01,2013-09-07 00:16:00,
2013-09-06 19:18:00,78.3,68.9,29.99,SSE,167,0.0,1.0,73,0.00,,---,0.00,VWS V14.01,2013-09-07 00:18:00,
2013-09-06 19:19:00,78.2,68.8,29.99,SSE,167,0.0,1.0,73,0.00,,---,0.00,VWS V14.01,2013-09-07 00:19:00,
2013-09-06 19:23:00,77.6,69.1,29.99,SSE,167,0.0,1.0,75,0.00,,---,0.00,VWS V14.01,2013-09-07 00:23:00,
2013-09-06 19:24:00,77.5,69.0,29.99,SSE,167,0.0,1.0,75,0.00,,---,0.00,VWS V14.01,2013-09-07 00:24:00,
2013-09-06 19:25:00,77.3,68.8,29.99,SSE,167,0.0,1.0,75,0.00,,---,0.00,VWS V14.01,2013-09-07 00:25:00,
2013-09-06 19:26:00,77.2,69.1,29.99,SSE,167,0.0,0.0,76,0.00,,---,0.00,VWS V14.01,2013-09-07 00:26:00,
2013-09-06 19:28:00,76.9,69.2,29.99,SSE,167,0.0,0.0,77,0.00,,---,0.00,VWS V14.01,2013-09-07 00:28:00,
2013-09-06 19:29:00,76.9,69.2,29.99,SSE,167,0.0,0.0,77,0.00,,---,0.00,VWS V14.01,2013-09-07 00:29:00,
2013-09-06 19:30:00,76.7,68.9,29.99,SSE,167,0.0,0.0,77,0.00,,---,0.00,VWS V14.01,2013-09-07 00:30:00,
2013-09-06 19:31:00,76.6,68.9,29.99,SSE,167,0.0,0.0,77,0.00,,---,0.00,VWS V14.01,2013-09-07 00:31:00,
2013-09-06 19:33:00,76.5,69.1,29.99,SSE,167,0.0,0.0,78,0.00,,---,0.00,VWS V14.01,2013-09-07 00:33:00,
2013-09-06 19:34:00,76.4,69.0,29.99,SSE,167,0.0,0.0,78,0.00,,---,0.00,VWS V14.01,2013-09-07 00:34:00,
2013-09-06 19:35:00,76.4,69.0,29.99,SSE,167,0.0,0.0,78,0.00,,---,0.00,VWS V14.01,2013-09-07 00:35:00,
2013-09-06 19:36:00,76.2,68.8,29.99,SSE,167,0.0,0.0,78,0.00,,---,0.00,VWS V14.01,2013-09-07 00:36:00,
2013-09-06 19:39:00,76.0,68.7,29.99,SSE,167,0.0,0.0,78,0.00,,---,0.00,VWS V14.01,2013-09-07 00:39:00,
2013-09-06 19:40:00,76.0,68.3,29.99,SSE,167,0.0,0.0,77,0.00,,---,0.00,VWS V14.01,2013-09-07 00:40:00,
2013-09-06 19:42:00,75.8,68.1,29.99,SSE,167,0.0,0.0,77,0.00,,---,0.00,VWS V14.01,2013-09-07 00:42:00,
2013-09-06 19:44:00,75.6,67.9,29.99,SSE,167,0.0,0.0,77,0.00,,---,0.00,VWS V14.01,2013-09-07 00:44:00,
2013-09-06 19:45:00,75.5,67.8,29.99,SSE,167,0.0,0.0,77,0.00,,---,0.00,VWS V14.01,2013-09-07 00:45:00,
2013-09-06 19:47:00,75.3,67.6,29.99,SSE,167,0.0,0.0,77,0.00,,---,0.00,VWS V14.01,2013-09-07 00:47:00,
2013-09-06 19:50:00,74.9,67.2,30.00,SSE,167,0.0,0.0,77,0.00,,---,0.00,VWS V14.01,2013-09-07 00:50:00,
2013-09-06 19:51:00,74.8,67.5,30.00,SSE,167,0.0,0.0,78,0.00,,---,0.00,VWS V14.01,2013-09-07 00:51:00,
2013-09-06 19:52:00,74.7,67.4,29.99,SSE,167,0.0,0.0,78,0.00,,---,0.00,VWS V14.01,2013-09-07 00:52:00,
2013-09-06 19:55:00,74.3,67.0,29.99,SSE,167,0.0,0.0,78,0.00,,---,0.00,VWS V14.01,2013-09-07 00:55:00,
2013-09-06 19:56:00,74.3,67.0,29.99,SSE,167,0.0,0.0,78,0.00,,---,0.00,VWS V14.01,2013-09-07 00:56:00,
2013-09-06 19:57:00,74.1,66.8,29.99,SSE,167,0.0,0.0,78,0.00,,---,0.00,VWS V14.01,2013-09-07 00:57:00,
2013-09-06 20:00:00,73.8,66.9,30.00,SSE,167,0.0,0.0,79,0.00,,---,0.00,VWS V14.01,2013-09-07 01:00:00,
2013-09-06 20:01:00,73.8,66.9,30.00,SSE,167,0.0,0.0,79,0.00,,---,0.00,VWS V14.01,2013-09-07 01:01:00,
2013-09-06 20:02:00,73.6,67.1,29.99,SSE,167,0.0,0.0,80,0.00,,---,0.00,VWS V14.01,2013-09-07 01:02:00,
2013-09-06 20:06:00,73.3,67.1,29.99,SSE,167,0.0,0.0,81,0.00,,---,0.00,VWS V14.01,2013-09-07 01:06:00,
2013-09-06 20:07:00,73.3,67.1,30.00,SSE,167,0.0,0.0,81,0.00,,---,0.00,VWS V14.01,2013-09-07 01:07:00,
2013-09-06 20:08:00,73.2,67.4,30.00,SSE,167,0.0,0.0,82,0.00,,---,0.00,VWS V14.01,2013-09-07 01:08:00,
2013-09-06 20:09:00,73.2,67.4,30.00,SSE,167,0.0,0.0,82,0.00,,---,0.00,VWS V14.01,2013-09-07 01:09:00,
2013-09-06 20:11:00,73.1,67.3,30.00,SSE,167,0.0,0.0,82,0.00,,---,0.00,VWS V14.01,2013-09-07 01:11:00,
2013-09-06 20:12:00,73.1,67.3,30.00,SSE,167,0.0,0.0,82,0.00,,---,0.00,VWS V14.01,2013-09-07 01:12:00,
2013-09-06 20:13:00,73.1,67.6,30.00,SSE,167,0.0,0.0,83,0.00,,---,0.00,VWS V14.01,2013-09-07 01:13:00,
2013-09-06 20:14:00,73.0,67.5,30.00,SSE,167,0.0,0.0,83,0.00,,---,0.00,VWS V14.01,2013-09-07 01:14:00,
2013-09-06 20:16:00,73.0,67.9,30.00,SSE,167,0.0,0.0,84,0.00,,---,0.00,VWS V14.01,2013-09-07 01:16:00,
2013-09-06 20:17:00,72.9,67.8,30.00,SSE,167,0.0,0.0,84,0.00,,---,0.00,VWS V14.01,2013-09-07 01:17:00,
2013-09-06 20:19:00,72.8,67.7,30.00,SSE,167,0.0,0.0,84,0.00,,---,0.00,VWS V14.01,2013-09-07 01:19:00,
2013-09-06 20:21:00,72.6,67.8,30.00,SSE,167,0.0,0.0,85,0.00,,---,0.00,VWS V14.01,2013-09-07 01:21:00,
2013-09-06 20:22:00,72.5,67.7,30.00,SSE,167,0.0,0.0,85,0.00,,---,0.00,VWS V14.01,2013-09-07 01:22:00,
2013-09-06 20:24:00,72.4,67.6,30.00,SSE,167,0.0,0.0,85,0.00,,---,0.00,VWS V14.01,2013-09-07 01:24:00,
2013-09-06 20:26:00,72.2,67.4,30.00,SSE,167,0.0,0.0,85,0.00,,---,0.00,VWS V14.01,2013-09-07 01:26:00,
2013-09-06 20:27:00,72.2,67.4,30.00,SSE,167,0.0,0.0,85,0.00,,---,0.00,VWS V14.01,2013-09-07 01:27:00,
2013-09-06 20:29:00,72.1,67.3,30.01,SSE,167,0.0,0.0,85,0.00,,---,0.00,VWS V14.01,2013-09-07 01:29:00,
2013-09-06 20:30:00,72.0,67.2,30.01,SSE,167,0.0,0.0,85,0.00,,---,0.00,VWS V14.01,2013-09-07 01:30:00,
2013-09-06 20:31:00,71.9,67.5,30.01,SSE,167,0.0,0.0,86,0.00,,---,0.00,VWS V14.01,2013-09-07 01:31:00,
2013-09-06 20:32:00,71.9,67.5,30.00,SSE,167,0.0,0.0,86,0.00,,---,0.00,VWS V14.01,2013-09-07 01:32:00,
2013-09-06 20:33:00,71.8,67.4,30.00,SSE,167,0.0,0.0,86,0.00,,---,0.00,VWS V14.01,2013-09-07 01:33:00,
2013-09-06 20:34:00,71.8,67.4,30.00,SSE,167,0.0,0.0,86,0.00,,---,0.00,VWS V14.01,2013-09-07 01:34:00,
2013-09-06 20:36:00,71.7,67.3,30.00,SSE,167,0.0,0.0,86,0.00,,---,0.00,VWS V14.01,2013-09-07 01:36:00,
2013-09-06 20:37:00,71.6,67.5,30.00,SSE,167,0.0,0.0,87,0.00,,---,0.00,VWS V14.01,2013-09-07 01:37:00,
2013-09-06 20:38:00,71.6,67.5,30.00,SSE,167,0.0,0.0,87,0.00,,---,0.00,VWS V14.01,2013-09-07 01:38:00,
2013-09-06 20:39:00,71.6,67.5,30.00,SSE,167,0.0,0.0,87,0.00,,---,0.00,VWS V14.01,2013-09-07 01:39:00,
2013-09-06 20:41:00,71.4,67.3,30.00,SSE,167,0.0,1.0,87,0.00,,---,0.00,VWS V14.01,2013-09-07 01:41:00,
2013-09-06 20:42:00,71.4,67.3,30.00,SSE,167,0.0,1.0,87,0.00,,---,0.00,VWS V14.01,2013-09-07 01:42:00,
2013-09-06 20:43:00,71.3,67.2,30.00,SSE,167,0.0,1.0,87,0.00,,---,0.00,VWS V14.01,2013-09-07 01:43:00,
2013-09-06 20:44:00,71.3,67.6,30.00,SSE,167,0.0,1.0,88,0.00,,---,0.00,VWS V14.01,2013-09-07 01:44:00,
2013-09-06 20:46:00,71.1,67.4,30.01,SSE,167,0.0,1.0,88,0.00,,---,0.00,VWS V14.01,2013-09-07 01:46:00,
2013-09-06 20:47:00,71.1,67.4,30.01,SSE,167,0.0,1.0,88,0.00,,---,0.00,VWS V14.01,2013-09-07 01:47:00,
2013-09-06 20:49:00,71.0,67.3,30.00,SSE,167,0.0,1.0,88,0.00,,---,0.00,VWS V14.01,2013-09-07 01:49:00,
2013-09-06 20:50:00,70.9,67.2,30.00,SSE,167,0.0,1.0,88,0.00,,---,0.00,VWS V14.01,2013-09-07 01:50:00,
2013-09-06 20:51:00,70.8,67.4,30.00,SSE,167,0.0,1.0,89,0.00,,---,0.00,VWS V14.01,2013-09-07 01:51:00,
2013-09-06 20:52:00,70.8,67.4,30.00,SSE,167,0.0,1.0,89,0.00,,---,0.00,VWS V14.01,2013-09-07 01:52:00,
2013-09-06 20:54:00,70.7,67.3,30.00,SSE,167,0.0,1.0,89,0.00,,---,0.00,VWS V14.01,2013-09-07 01:54:00,
2013-09-06 20:56:00,70.6,67.2,30.00,SSE,167,0.0,0.0,89,0.00,,---,0.00,VWS V14.01,2013-09-07 01:56:00,
2013-09-06 20:57:00,70.6,67.2,30.00,SSE,167,0.0,0.0,89,0.00,,---,0.00,VWS V14.01,2013-09-07 01:57:00,
2013-09-06 20:58:00,70.5,67.1,30.00,SSE,167,0.0,0.0,89,0.00,,---,0.00,VWS V14.01,2013-09-07 01:58:00,
2013-09-06 21:00:00,74.3,67.0,29.99,SSE,167,0.0,0.0,78,0.00,,---,0.00,VWS V14.01,2013-09-07 02:00:00,
2013-09-06 21:01:00,70.3,66.9,30.00,SSE,167,0.0,0.0,89,0.00,,---,0.00,VWS V14.01,2013-09-07 02:01:00,
2013-09-06 21:02:00,70.3,66.9,30.00,SSE,167,0.0,0.0,89,0.00,,---,0.00,VWS V14.01,2013-09-07 02:02:00,
2013-09-06 21:03:00,70.2,66.8,30.00,SSE,167,0.0,0.0,89,0.00,,---,0.00,VWS V14.01,2013-09-07 02:03:00,
2013-09-06 21:06:00,70.0,66.9,30.00,SSE,167,0.0,0.0,90,0.00,,---,0.00,VWS V14.01,2013-09-07 02:06:00,
2013-09-06 21:07:00,70.0,66.9,30.00,SSE,167,0.0,0.0,90,0.00,,---,0.00,VWS V14.01,2013-09-07 02:07:00,
2013-09-06 21:08:00,69.9,66.8,30.00,SSE,167,0.0,0.0,90,0.00,,---,0.00,VWS V14.01,2013-09-07 02:08:00,
2013-09-06 21:11:00,69.8,66.7,30.00,SSE,167,0.0,0.0,90,0.00,,---,0.00,VWS V14.01,2013-09-07 02:11:00,
2013-09-06 21:12:00,69.7,67.0,30.00,SSE,167,0.0,0.0,91,0.00,,---,0.00,VWS V14.01,2013-09-07 02:12:00,
2013-09-06 21:13:00,69.7,66.6,30.00,SSE,167,0.0,0.0,90,0.00,,---,0.00,VWS V14.01,2013-09-07 02:13:00,
2013-09-06 21:16:00,69.5,66.8,30.00,SSE,167,0.0,0.0,91,0.00,,---,0.00,VWS V14.01,2013-09-07 02:16:00,
2013-09-06 21:17:00,69.5,66.8,30.00,SSE,167,0.0,0.0,91,0.00,,---,0.00,VWS V14.01,2013-09-07 02:17:00,
2013-09-06 21:18:00,69.4,66.7,30.00,SSE,167,0.0,0.0,91,0.00,,---,0.00,VWS V14.01,2013-09-07 02:18:00,
2013-09-06 21:21:00,69.3,66.6,30.00,SSE,167,0.0,0.0,91,0.00,,---,0.00,VWS V14.01,2013-09-07 02:21:00,
2013-09-06 21:22:00,69.2,66.5,30.00,SSE,167,0.0,0.0,91,0.00,,---,0.00,VWS V14.01,2013-09-07 02:22:00,
2013-09-06 21:24:00,69.2,66.5,30.00,SSE,167,0.0,0.0,91,0.00,,---,0.00,VWS V14.01,2013-09-07 02:24:00,
2013-09-06 21:27:00,69.1,66.4,30.00,SSE,167,0.0,0.0,91,0.00,,---,0.00,VWS V14.01,2013-09-07 02:27:00,
2013-09-06 21:28:00,69.0,66.3,30.00,SSE,167,0.0,0.0,91,0.00,,---,0.00,VWS V14.01,2013-09-07 02:28:00,
2013-09-06 21:29:00,69.0,66.3,30.00,SSE,167,0.0,0.0,91,0.00,,---,0.00,VWS V14.01,2013-09-07 02:29:00,
2013-09-06 21:30:00,72.2,67.4,30.00,SSE,167,0.0,0.0,85,0.00,,---,0.00,VWS V14.01,2013-09-07 02:30:00,
2013-09-06 21:32:00,68.9,66.2,30.00,SSE,167,0.0,0.0,91,0.00,,---,0.00,VWS V14.01,2013-09-07 02:32:00,
2013-09-06 21:33:00,68.9,66.2,30.00,SSE,167,0.0,0.0,91,0.00,,---,0.00,VWS V14.01,2013-09-07 02:33:00,
2013-09-06 21:34:00,68.9,66.2,30.00,SSE,167,0.0,0.0,91,0.00,,---,0.00,VWS V14.01,2013-09-07 02:34:00,
2013-09-06 21:37:00,68.8,66.1,30.00,SSE,167,0.0,0.0,91,0.00,,---,0.00,VWS V14.01,2013-09-07 02:37:00,
2013-09-06 21:38:00,68.8,66.1,30.00,SSE,167,0.0,0.0,91,0.00,,---,0.00,VWS V14.01,2013-09-07 02:38:00,
2013-09-06 21:39:00,68.7,66.0,30.00,SSE,167,0.0,0.0,91,0.00,,---,0.00,VWS V14.01,2013-09-07 02:39:00,
2013-09-06 21:42:00,68.6,66.2,30.00,SSE,167,0.0,0.0,92,0.00,,---,0.00,VWS V14.01,2013-09-07 02:42:00,
2013-09-06 21:43:00,68.6,66.2,30.00,SSE,167,0.0,0.0,92,0.00,,---,0.00,VWS V14.01,2013-09-07 02:43:00,
2013-09-06 21:44:00,68.6,66.2,30.00,SSE,167,0.0,0.0,92,0.00,,---,0.00,VWS V14.01,2013-09-07 02:44:00,
2013-09-06 21:48:00,68.5,66.1,30.00,SSE,167,0.0,0.0,92,0.00,,---,0.00,VWS V14.01,2013-09-07 02:48:00,
2013-09-06 21:49:00,68.4,66.0,30.00,SSE,167,0.0,0.0,92,0.00,,---,0.00,VWS V14.01,2013-09-07 02:49:00,
2013-09-06 21:53:00,68.3,65.9,30.00,SSE,167,0.0,0.0,92,0.00,,---,0.00,VWS V14.01,2013-09-07 02:53:00,
2013-09-06 21:54:00,68.2,65.8,30.00,SSE,167,0.0,0.0,92,0.00,,---,0.00,VWS V14.01,2013-09-07 02:54:00,
2013-09-06 21:55:00,68.2,65.8,30.00,SSE,167,0.0,0.0,92,0.00,,---,0.00,VWS V14.01,2013-09-07 02:55:00,
2013-09-06 21:58:00,68.1,65.7,30.00,SSE,167,0.0,0.0,92,0.00,,---,0.00,VWS V14.01,2013-09-07 02:58:00,
2013-09-06 21:59:00,68.0,65.6,30.00,SSE,167,0.0,0.0,92,0.00,,---,0.00,VWS V14.01,2013-09-07 02:59:00,
2013-09-06 22:00:00,68.0,65.9,30.00,SSE,167,0.0,0.0,93,0.00,,---,0.00,VWS V14.01,2013-09-07 03:00:00,
2013-09-06 22:03:00,67.9,65.8,30.00,SSE,167,0.0,0.0,93,0.00,,---,0.00,VWS V14.01,2013-09-07 03:03:00,
2013-09-06 22:04:00,67.9,65.8,30.00,SSE,167,0.0,0.0,93,0.00,,---,0.00,VWS V14.01,2013-09-07 03:04:00,
2013-09-06 22:05:00,67.8,65.7,30.00,SSE,167,0.0,0.0,93,0.00,,---,0.00,VWS V14.01,2013-09-07 03:05:00,
2013-09-06 22:08:00,67.7,65.6,30.00,SSE,167,0.0,0.0,93,0.00,,---,0.00,VWS V14.01,2013-09-07 03:08:00,
2013-09-06 22:09:00,67.7,65.6,30.00,SSE,167,0.0,0.0,93,0.00,,---,0.00,VWS V14.01,2013-09-07 03:09:00,
2013-09-06 22:10:00,67.7,65.6,30.00,SSE,167,0.0,0.0,93,0.00,,---,0.00,VWS V14.01,2013-09-07 03:10:00,
2013-09-06 22:11:00,67.6,65.5,30.00,SSE,167,0.0,0.0,93,0.00,,---,0.00,VWS V14.01,2013-09-07 03:11:00,
2013-09-06 22:14:00,67.6,65.5,30.00,SSE,167,0.0,0.0,93,0.00,,---,0.00,VWS V14.01,2013-09-07 03:14:00,
2013-09-06 22:15:00,67.6,65.5,30.00,SSE,167,0.0,0.0,93,0.00,,---,0.00,VWS V14.01,2013-09-07 03:15:00,
2013-09-06 22:16:00,67.5,65.4,30.00,SSE,167,0.0,0.0,93,0.00,,---,0.00,VWS V14.01,2013-09-07 03:16:00,
2013-09-06 22:19:00,67.4,65.3,30.00,SSE,167,0.0,0.0,93,0.00,,---,0.00,VWS V14.01,2013-09-07 03:19:00,
2013-09-06 22:20:00,67.4,65.3,30.00,SSE,167,0.0,0.0,93,0.00,,---,0.00,VWS V14.01,2013-09-07 03:20:00,
2013-09-06 22:21:00,67.3,65.2,30.00,SSE,167,0.0,0.0,93,0.00,,---,0.00,VWS V14.01,2013-09-07 03:21:00,
2013-09-06 22:24:00,67.3,65.5,30.00,SSE,167,0.0,0.0,94,0.00,,---,0.00,VWS V14.01,2013-09-07 03:24:00,
2013-09-06 22:25:00,67.2,65.4,30.00,SSE,167,0.0,0.0,94,0.00,,---,0.00,VWS V14.01,2013-09-07 03:25:00,
2013-09-06 22:26:00,67.2,65.1,30.00,SSE,167,0.0,0.0,93,0.00,,---,0.00,VWS V14.01,2013-09-07 03:26:00,
2013-09-06 22:27:00,67.2,65.1,30.00,SSE,167,0.0,0.0,93,0.00,,---,0.00,VWS V14.01,2013-09-07 03:27:00,
2013-09-06 22:30:00,67.1,65.0,30.00,SSE,167,0.0,0.0,93,0.00,,---,0.00,VWS V14.01,2013-09-07 03:30:00,
2013-09-06 22:31:00,67.1,65.0,30.00,SSE,167,0.0,0.0,93,0.00,,---,0.00,VWS V14.01,2013-09-07 03:31:00,
2013-09-06 22:32:00,67.1,65.3,30.00,SSE,167,0.0,0.0,94,0.00,,---,0.00,VWS V14.01,2013-09-07 03:32:00,
2013-09-06 22:35:00,67.0,65.2,30.00,SSE,167,0.0,0.0,94,0.00,,---,0.00,VWS V14.01,2013-09-07 03:35:00,
2013-09-06 22:36:00,67.0,65.2,30.00,SSE,167,0.0,0.0,94,0.00,,---,0.00,VWS V14.01,2013-09-07 03:36:00,
2013-09-06 22:37:00,66.9,65.1,30.00,SSE,167,0.0,0.0,94,0.00,,---,0.00,VWS V14.01,2013-09-07 03:37:00,
2013-09-06 22:38:00,66.9,65.1,30.00,SSE,167,0.0,0.0,94,0.00,,---,0.00,VWS V14.01,2013-09-07 03:38:00,
2013-09-06 22:40:00,66.9,65.1,30.00,SSE,167,0.0,0.0,94,0.00,,---,0.00,VWS V14.01,2013-09-07 03:40:00,
2013-09-06 22:41:00,66.8,65.0,30.00,SSE,167,0.0,0.0,94,0.00,,---,0.00,VWS V14.01,2013-09-07 03:41:00,
2013-09-06 22:42:00,66.8,65.0,30.00,SSE,167,0.0,0.0,94,0.00,,---,0.00,VWS V14.01,2013-09-07 03:42:00,
2013-09-06 22:44:00,66.8,65.0,30.00,SSE,167,0.0,0.0,94,0.00,,---,0.00,VWS V14.01,2013-09-07 03:44:00,
2013-09-06 22:45:00,66.8,65.0,30.00,SSE,167,0.0,0.0,94,0.00,,---,0.00,VWS V14.01,2013-09-07 03:45:00,
2013-09-06 22:46:00,66.7,64.9,30.00,SSE,167,0.0,0.0,94,0.00,,---,0.00,VWS V14.01,2013-09-07 03:46:00,
2013-09-06 22:47:00,66.7,64.9,30.00,SSE,167,0.0,0.0,94,0.00,,---,0.00,VWS V14.01,2013-09-07 03:47:00,
2013-09-06 22:49:00,66.7,64.9,30.00,SSE,167,0.0,0.0,94,0.00,,---,0.00,VWS V14.01,2013-09-07 03:49:00,
2013-09-06 22:50:00,66.6,64.8,30.00,SSE,167,0.0,0.0,94,0.00,,---,0.00,VWS V14.01,2013-09-07 03:50:00,
2013-09-06 22:51:00,66.6,64.8,30.00,SSE,167,0.0,0.0,94,0.00,,---,0.00,VWS V14.01,2013-09-07 03:51:00,
2013-09-06 22:53:00,66.6,64.8,30.00,SSE,167,0.0,0.0,94,0.00,,---,0.00,VWS V14.01,2013-09-07 03:53:00,
2013-09-06 22:55:00,66.5,64.7,30.00,SSE,167,0.0,0.0,94,0.00,,---,0.00,VWS V14.01,2013-09-07 03:55:00,
2013-09-06 22:56:00,66.5,64.7,30.00,SSE,167,0.0,0.0,94,0.00,,---,0.00,VWS V14.01,2013-09-07 03:56:00,
2013-09-06 22:58:00,66.4,64.6,30.00,SSE,167,0.0,0.0,94,0.00,,---,0.00,VWS V14.01,2013-09-07 03:58:00,
2013-09-06 23:00:00,66.4,64.6,30.00,SSE,167,0.0,0.0,94,0.00,,---,0.00,VWS V14.01,2013-09-07 04:00:00,
2013-09-06 23:01:00,66.4,64.6,30.00,SSE,167,0.0,0.0,94,0.00,,---,0.00,VWS V14.01,2013-09-07 04:01:00,
2013-09-06 23:02:00,66.3,64.5,30.00,SSE,167,0.0,0.0,94,0.00,,---,0.00,VWS V14.01,2013-09-07 04:02:00,
2013-09-06 23:06:00,66.2,64.4,30.00,SSE,167,0.0,0.0,94,0.00,,---,0.00,VWS V14.01,2013-09-07 04:06:00,
2013-09-06 23:07:00,66.2,64.4,30.00,SSE,167,0.0,0.0,94,0.00,,---,0.00,VWS V14.01,2013-09-07 04:07:00,
2013-09-06 23:11:00,66.1,64.3,30.00,SSE,167,0.0,0.0,94,0.00,,---,0.00,VWS V14.01,2013-09-07 04:11:00,
2013-09-06 23:12:00,66.0,64.2,30.00,SSE,167,0.0,0.0,94,0.00,,---,0.00,VWS V14.01,2013-09-07 04:12:00,
2013-09-06 23:13:00,66.0,64.2,30.00,SSE,167,0.0,0.0,94,0.00,,---,0.00,VWS V14.01,2013-09-07 04:13:00,
2013-09-06 23:16:00,65.9,64.1,30.00,SSE,167,0.0,0.0,94,0.00,,---,0.00,VWS V14.01,2013-09-07 04:16:00,
2013-09-06 23:18:00,65.9,64.1,30.00,SSE,167,0.0,0.0,94,0.00,,---,0.00,VWS V14.01,2013-09-07 04:18:00,
2013-09-06 23:21:00,65.8,64.0,30.00,SSE,167,0.0,0.0,94,0.00,,---,0.00,VWS V14.01,2013-09-07 04:21:00,
2013-09-06 23:24:00,65.8,64.0,30.00,SSE,167,0.0,0.0,94,0.00,,---,0.00,VWS V14.01,2013-09-07 04:24:00,
2013-09-06 23:25:00,65.7,63.9,30.00,SSE,167,0.0,0.0,94,0.00,,---,0.00,VWS V14.01,2013-09-07 04:25:00,
2013-09-06 23:26:00,65.7,63.9,30.00,SSE,167,0.0,0.0,94,0.00,,---,0.00,VWS V14.01,2013-09-07 04:26:00,
2013-09-06 23:27:00,65.7,63.9,30.00,SSE,167,0.0,0.0,94,0.00,,---,0.00,VWS V14.01,2013-09-07 04:27:00,
2013-09-06 23:30:00,65.6,63.8,30.00,SSE,167,0.0,0.0,94,0.00,,---,0.00,VWS V14.01,2013-09-07 04:30:00,
2013-09-06 23:31:00,65.6,63.8,30.00,SSE,167,0.0,0.0,94,0.00,,---,0.00,VWS V14.01,2013-09-07 04:31:00,
2013-09-06 23:32:00,65.5,63.7,30.00,SSE,167,0.0,0.0,94,0.00,,---,0.00,VWS V14.01,2013-09-07 04:32:00,
2013-09-06 23:33:00,65.5,63.7,30.00,SSE,167,0.0,0.0,94,0.00,,---,0.00,VWS V14.01,2013-09-07 04:33:00,
2013-09-06 23:35:00,65.5,63.7,30.00,SSE,167,0.0,0.0,94,0.00,,---,0.00,VWS V14.01,2013-09-07 04:35:00,
2013-09-06 23:36:00,65.4,63.6,30.00,SSE,167,0.0,0.0,94,0.00,,---,0.00,VWS V14.01,2013-09-07 04:36:00,
2013-09-06 23:37:00,65.4,63.6,30.00,SSE,167,0.0,0.0,94,0.00,,---,0.00,VWS V14.01,2013-09-07 04:37:00,
2013-09-06 23:38:00,65.4,63.6,30.00,SSE,167,0.0,0.0,94,0.00,,---,0.00,VWS V14.01,2013-09-07 04:38:00,
2013-09-06 23:40:00,65.3,63.5,30.00,SSE,167,0.0,0.0,94,0.00,,---,0.00,VWS V14.01,2013-09-07 04:40:00,
2013-09-06 23:41:00,65.3,63.5,30.00,SSE,167,0.0,0.0,94,0.00,,---,0.00,VWS V14.01,2013-09-07 04:41:00,
2013-09-06 23:43:00,65.3,63.5,30.00,SSE,167,0.0,0.0,94,0.00,,---,0.00,VWS V14.01,2013-09-07 04:43:00,
2013-09-06 23:44:00,65.3,63.5,30.00,SSE,167,0.0,0.0,94,0.00,,---,0.00,VWS V14.01,2013-09-07 04:44:00,
2013-09-06 23:46:00,65.2,63.4,30.00,SSE,167,0.0,0.0,94,0.00,,---,0.00,VWS V14.01,2013-09-07 04:46:00,
2013-09-06 23:47:00,65.2,63.4,30.00,SSE,167,0.0,0.0,94,0.00,,---,0.00,VWS V14.01,2013-09-07 04:47:00,
2013-09-06 23:48:00,65.2,63.4,30.00,SSE,167,0.0,0.0,94,0.00,,---,0.00,VWS V14.01,2013-09-07 04:48:00,
2013-09-06 23:49:00,65.2,63.4,30.00,SSE,167,0.0,0.0,94,0.00,,---,0.00,VWS V14.01,2013-09-07 04:49:00,
2013-09-06 23:52:00,65.1,63.3,30.00,SSE,167,0.0,1.0,94,0.00,,---,0.00,VWS V14.01,2013-09-07 04:52:00,
2013-09-06 23:53:00,65.1,63.3,30.00,SSE,167,1.0,1.0,94,0.00,,---,0.00,VWS V14.01,2013-09-07 04:53:00,
2013-09-06 23:55:00,65.1,63.3,30.00,SSE,167,0.0,1.0,94,0.00,,---,0.00,VWS V14.01,2013-09-07 04:55:00,
2013-09-06 23:57:00,65.0,63.5,30.00,SSE,167,0.0,0.0,95,0.00,,---,0.00,VWS V14.01,2013-09-07 04:57:00,
2013-09-06 23:58:00,65.0,63.5,30.00,SSE,167,0.0,0.0,95,0.00,,---,0.00,VWS V14.01,2013-09-07 04:58:00,
2013-09-06 23:59:00,65.0,63.5,30.00,SSE,167,0.0,0.0,95,0.00,,---,0.00,VWS V14.01,2013-09-07 04:59:00,